STARLINK-33965

Last updated on Sat Jul 19 2025 00:02:08 GMT+0000 (Coordinated Universal Time)

1 64755U 25147A 25199.58335648 -.01440756 00000+0 -96681-2 0 9994 2 64755 53.1587 256.8954 0000881 71.0219 324.1304 15.77360229 2858
UTC large
Height (km)
Speed (km/s)
/
Latitude / Longitude
Inclination (degrees)
Orbital Period (minutes)
Azimuth
Elevation
Range (km)
Doppler Factor

Next 0 passes for location: London (51.5072 / 0.1276)

Sorry there are no passes over London.